Weather History for Millville, NJ

Change the Weather History Date:

Friday, February 22, 2013

  Actual Average Record
Temperature  
Mean Temperature 32 °F -  
Max Temperature 39 °F 49 °F 68 °F (1991)
Min Temperature 26 °F 28 °F 5 °F (1968)
Degree Days  
Heating Degree Days 32    
Moisture  
Dew Point 23 °F    
Average Humidity 69    
Maximum Humidity 96    
Minimum Humidity 57    
Precipitation  
Precipitation 0.05 in - - ()
Sea Level Pressure  
Sea Level Pressure 30.32 in    
Wind  
Wind Speed 6 mph (ENE)    
Max Wind Speed 9 mph    
Max Gust Speed -    
Visibility 10 miles    
Events Rain    
Averages and records for this station are not official NWS values.
T = Trace of Precipitation, MM = Missing Value Source: NWS Daily Summary

Daily Weather History Graph

Daily Weather History Graph

Search for Another Location

Airport:

Trip Planner

Search our weather history database for the weather conditions in past years. The results will help you decide how hot, cold, wet, or windy it might be!

Date:

Astronomy

Feb. 22, 2013 Rise Set
Actual Time 6:42 AM EST 5:45 PM EST
Civil Twilight 6:15 AM EST 6:12 PM EST
Nautical Twilight 5:44 AM EST 6:43 PM EST
Astronomical Twilight 5:13 AM EST 7:14 PM EST
Moon 2:55 PM EST (2/22) 4:25 AM EST (2/22)
Length of Visible Light 11h 56m
Length of Day
11h 02m
Waxing Gibbous, 90% of the Moon is Illuminated
Feb 22
Waxing Gibbous
Feb 25
Full
Mar 4
Last Quarter
Mar 11
New
Mar 19
First Quarter

Hourly Weather History & Observations

Time (EST) Temp. Windchill Dew Point Humidity Pressure Visibility Wind Dir Wind Speed Gust Speed Precip Events Conditions
12:54 AM 27.0 °F 19.5 °F 15.1 °F 61% 30.28 in 10.0 mi North 6.9 mph - N/A   Clear
1:54 AM 26.1 °F 19.4 °F 15.1 °F 63% 30.32 in 10.0 mi NNW 5.8 mph - N/A   Clear
2:54 AM 26.1 °F 16.8 °F 15.1 °F 63% 30.30 in 10.0 mi North 9.2 mph - N/A   Clear
3:54 AM 26.1 °F 18.4 °F 15.1 °F 63% 30.33 in 10.0 mi North 6.9 mph - N/A   Clear
4:54 AM 26.1 °F 17.6 °F 15.1 °F 63% 30.35 in 10.0 mi NNE 8.1 mph - N/A   Clear
5:54 AM 26.1 °F 21.9 °F 15.1 °F 63% 30.37 in 10.0 mi North 3.5 mph - N/A   Clear
6:54 AM 26.1 °F 21.9 °F 16.0 °F 66% 30.40 in 10.0 mi WNW 3.5 mph - N/A   Clear
7:54 AM 27.0 °F 19.5 °F 16.0 °F 63% 30.39 in 10.0 mi NE 6.9 mph - N/A   Clear
8:54 AM 28.9 °F 21.1 °F 17.1 °F 61% 30.39 in 10.0 mi NE 8.1 mph - N/A   Clear
9:54 AM 30.0 °F 24.1 °F 18.0 °F 61% 30.38 in 10.0 mi East 5.8 mph - N/A   Clear
10:54 AM 33.1 °F 26.1 °F 21.0 °F 61% 30.37 in 10.0 mi East 8.1 mph - N/A   Clear
11:54 AM 36.0 °F 30.3 °F 23.0 °F 59% 30.35 in 10.0 mi East 6.9 mph - N/A   Clear
12:54 PM 37.9 °F 32.1 °F 24.1 °F 57% 30.32 in 10.0 mi East 8.1 mph - N/A   Overcast
1:54 PM 39.0 °F 34.0 °F 26.1 °F 60% 30.31 in 10.0 mi ESE 6.9 mph - N/A   Overcast
2:54 PM 39.0 °F 34.0 °F 26.1 °F 60% 30.30 in 10.0 mi SE 6.9 mph - N/A   Overcast
3:54 PM 37.9 °F 33.5 °F 27.0 °F 65% 30.31 in 10.0 mi ESE 5.8 mph - N/A   Overcast
4:54 PM 37.0 °F 32.4 °F 28.0 °F 70% 30.30 in 10.0 mi ESE 5.8 mph - N/A   Overcast
5:54 PM 36.0 °F 32.1 °F 28.0 °F 73% 30.30 in 10.0 mi East 4.6 mph - N/A   Overcast
6:54 PM 35.1 °F 31.0 °F 28.9 °F 78% 30.30 in 10.0 mi ESE 4.6 mph - 0.00 in   Overcast
7:54 PM 35.1 °F - 30.0 °F 82% 30.31 in 10.0 mi Calm Calm - N/A   Overcast
8:54 PM 34.0 °F 31.0 °F 30.9 °F 89% 30.28 in 10.0 mi East 3.5 mph - 0.00 in Rain Light Rain
9:54 PM 33.1 °F 28.7 °F 30.9 °F 92% 30.28 in 5.0 mi ENE 4.6 mph - 0.03 in Rain Light Rain
10:54 PM 34.0 °F 29.8 °F 32.0 °F 92% 30.25 in 9.0 mi East 4.6 mph - 0.01 in Rain Light Rain
11:54 PM 34.0 °F 31.0 °F 33.1 °F 96% 30.24 in 9.0 mi East 3.5 mph - 0.01 in   Overcast